^^
Dati Storici Meteo-Taranto
 
Giornaliero Riassunto per Febbraio 28, 2024 Unità:  Metrica    Inglese   Entrambe
Giornaliero Settimanale Mensile Annuale Custom
  Attuale: Max: Min: Media:
Temperatura: 14.4 °C 14.5 °C 14.3 °C 14.4 °C
P.to di Rugiada: 12.4 °C 12.7 °C 12.4 °C 12.5 °C
Umidità: 88% 89% 88% 89%
Vel. Vento: 16.9km/h 28.9km/h 6km/h 15.8km/h
Raff. Vento: 12.9km/h 35.4km/h - -
Dir. VentoESE - - SE
Pressione: 1014.2 hPa 1014.3 hPa 1013.6 hPa -
Precipitazioni: 0.0 mm      
Historical Graphs
 
 
Dati tabulari per Febbraio 28, 2024
Orario Temperatura P.to di Rugiada Pressione Vento Vel. Vento Raff. Vento Umidità Precipitazioni (per ora)
00:04 14.5 °C 12.5 °C 1013.6 hPa East 17.3 km/h 29 km/h 88% 0.0 mm
00:09 14.5 °C 12.5 °C 1013.7 hPa ESE 28.9 km/h 19.3 km/h 88% 0.0 mm
00:14 14.5 °C 12.5 °C 1013.6 hPa SSE 26 km/h 35.4 km/h 88% 0.0 mm
00:19 14.4 °C 12.5 °C 1013.6 hPa SE 15.8 km/h 32.2 km/h 88% 0.0 mm
00:24 14.4 °C 12.5 °C 1013.6 hPa West 15.1 km/h 20.9 km/h 88% 0.0 mm
00:29 14.4 °C 12.4 °C 1013.6 hPa SE 17.6 km/h 20.9 km/h 88% 0.0 mm
00:34 14.4 °C 12.6 °C 1013.8 hPa SE 19.1 km/h 20.9 km/h 89% 0.0 mm
00:39 14.4 °C 12.6 °C 1013.8 hPa SE 20.4 km/h 20.9 km/h 89% 0.0 mm
00:44 14.3 °C 12.6 °C 1013.8 hPa SSE 19.4 km/h 24.1 km/h 89% 0.0 mm
00:49 14.3 °C 12.5 °C 1013.7 hPa SE 17 km/h 24.1 km/h 88.8% 0.0 mm
00:54 14.3 °C 12.5 °C 1013.9 hPa ESE 13.5 km/h 19.3 km/h 89% 0.0 mm
00:59 14.3 °C 12.5 °C 1013.9 hPa SE 21.1 km/h 19.3 km/h 89% 0.0 mm
01:04 14.3 °C 12.5 °C 1013.9 hPa ENE 16.5 km/h 32.2 km/h 89% 0.0 mm
01:09 14.3 °C 12.6 °C 1013.9 hPa SSE 8.9 km/h 19.3 km/h 89% 0.0 mm
01:14 14.3 °C 12.6 °C 1014.0 hPa SE 19.3 km/h 12.9 km/h 89% 0.0 mm
01:19 14.3 °C 12.6 °C 1014.0 hPa ESE 6 km/h 22.5 km/h 89% 0.0 mm
01:24 14.4 °C 12.6 °C 1014.0 hPa SE 8.6 km/h 14.5 km/h 89% 0.0 mm
01:29 14.4 °C 12.6 °C 1014.0 hPa ESE 15.7 km/h 14.5 km/h 89% 0.0 mm
01:34 14.4 °C 12.6 °C 1014.0 hPa East 15.4 km/h 19.3 km/h 89% 0.0 mm
01:39 14.4 °C 12.7 °C 1014.0 hPa East 15.7 km/h 19.3 km/h 89% 0.0 mm
01:44 14.4 °C 12.7 °C 1014.0 hPa ESE 18.8 km/h 22.5 km/h 89% 0.0 mm
01:49 14.4 °C 12.6 °C 1013.9 hPa ESE 19 km/h 22.5 km/h 89% 0.0 mm
01:54 14.4 °C 12.6 °C 1013.9 hPa East 15.8 km/h 24.1 km/h 89% 0.0 mm
01:59 14.4 °C 12.6 °C 1014.0 hPa SSE 12 km/h 19.3 km/h 88.9% 0.0 mm
02:04 14.4 °C 12.4 °C 1014.0 hPa SE 13.6 km/h 14.5 km/h 88% 0.0 mm
02:09 14.4 °C 12.5 °C 1014.0 hPa SE 14.2 km/h 19.3 km/h 88% 0.0 mm
02:14 14.4 °C 12.5 °C 1014.1 hPa ESE 15.7 km/h 16.1 km/h 88% 0.0 mm
02:19 14.4 °C 12.5 °C 1014.2 hPa ESE 9.4 km/h 19.3 km/h 88% 0.0 mm
02:24 14.4 °C 12.4 °C 1014.3 hPa SE 8.5 km/h 12.9 km/h 88% 0.0 mm
02:29 14.3 °C 12.4 °C 1014.2 hPa SE 8.7 km/h 12.9 km/h 88% 0.0 mm
02:34 14.4 °C 12.4 °C 1014.2 hPa ESE 16.9 km/h 12.9 km/h 88% 0.0 mm
Taranto, Puglia, ITA
Compliments of Weather Underground - 2 mb